Weather History for Middlebury State AP, Middlebu, VT

Change the Weather History Date:

Saturday, December 21, 2013

  Actual Average (KMPV) Record (KMPV)
Temperature  
Mean Temperature 38 °F 21 °F  
Max Temperature 51 °F 30 °F 56 °F (1957)
Min Temperature 26 °F 12 °F -22 °F (1955)
Degree Days  
Heating Degree Days 26 44  
Month to date heating degree days 844  
Since 1 July heating degree days 2690  
Moisture  
Dew Point 36 °F    
Average Humidity 96    
Maximum Humidity 100    
Minimum Humidity 82    
Precipitation  
Precipitation 0.19 in 0.08 in 1.91 in (1973)
Month to date precipitation 1.96  
Year to date precipitation 36.49  
Sea Level Pressure  
Sea Level Pressure 29.86 in    
Wind  
Wind Speed 4 mph (ESE)    
Max Wind Speed 16 mph    
Max Gust Speed 25 mph    
Visibility 6 miles    
Events Rain , Snow    
T = Trace of Precipitation, MM = Missing Value Source: NWS Daily Summary

Daily Weather History Graph

Daily Weather History Graph

Search for Another Location

Airport:

Trip Planner

Search our weather history database for the weather conditions in past years. The results will help you decide how hot, cold, wet, or windy it might be!

Date:

Astronomy

Dec. 21, 2013 Rise Set
Actual Time 7:23 AM EST 4:17 PM EST
Civil Twilight 6:50 AM EST 4:50 PM EST
Nautical Twilight 6:14 AM EST 5:27 PM EST
Astronomical Twilight 5:39 AM EST 6:02 PM EST
Moon 8:39 PM EST (12/21) 9:41 AM EST (12/21)
Length of Visible Light 9h 59m
Length of Day
8h 53m
Waning Gibbous, 84% of the Moon is Illuminated
Dec 21
Waning Gibbous
Dec 25
Last Quarter
Jan 1
New
Jan 7
First Quarter
Jan 15
Full

Hourly Weather History & Observations

Time (EST) Temp. Windchill Dew Point Humidity Pressure Visibility Wind Dir Wind Speed Gust Speed Precip Events Conditions
12:15 AM 26.4 °F - 26.4 °F 100% 29.88 in 4.0 mi Calm Calm - N/A   Overcast
12:35 AM 26.6 °F - 26.6 °F 100% 29.87 in 4.0 mi Calm Calm - N/A   Overcast
12:55 AM 26.8 °F 22.8 °F 26.8 °F 100% 29.84 in 4.0 mi ESE 3.5 mph - N/A   Overcast
1:15 AM 27.9 °F 24.0 °F 27.9 °F 100% 29.85 in 4.0 mi NW 3.5 mph - N/A   Overcast
1:35 AM 27.5 °F - 27.5 °F 100% 29.85 in 4.0 mi Calm Calm - N/A   Overcast
1:55 AM 27.5 °F 23.6 °F 27.5 °F 100% 29.86 in 4.0 mi North 3.5 mph - N/A   Overcast
2:15 AM 27.7 °F - 27.7 °F 100% 29.86 in 4.0 mi Calm Calm - N/A   Overcast
2:35 AM 28.4 °F - 28.4 °F 100% 29.85 in 4.0 mi Calm Calm - N/A   Overcast
2:55 AM 28.8 °F - 28.8 °F 100% 29.85 in 4.0 mi Calm Calm - N/A   Overcast
3:15 AM 29.7 °F - 29.7 °F 100% 29.85 in 4.0 mi Calm Calm - N/A   Overcast
3:35 AM 30.9 °F 27.5 °F 30.9 °F 100% 29.83 in 2.5 mi ESE 3.5 mph - N/A   Overcast
3:55 AM 33.8 °F 30.8 °F 33.8 °F 100% 29.81 in 4.0 mi East 3.5 mph - N/A   Overcast
4:15 AM 34.3 °F - 34.3 °F 100% 29.83 in 3.0 mi Calm Calm - N/A   Overcast
4:35 AM 32.7 °F - 32.7 °F 100% 29.83 in 2.0 mi Calm Calm - N/A   Overcast
4:55 AM 35.6 °F 32.8 °F 35.6 °F 100% 29.83 in 2.5 mi East 3.5 mph - N/A   Overcast
5:15 AM 43.9 °F 39.9 °F 43.7 °F 99% 29.82 in 10.0 mi ESE 6.9 mph - N/A   Overcast
5:35 AM 45.1 °F 40.8 °F 43.9 °F 95% 29.81 in 10.0 mi East 8.1 mph - N/A   Overcast
5:55 AM 45.9 °F 40.8 °F 44.1 °F 93% 29.83 in 10.0 mi ESE 10.4 mph 16.1 mph N/A   Overcast
6:15 AM 46.6 °F - 44.1 °F 91% 29.82 in 10.0 mi ESE 8.1 mph - N/A   Overcast
6:35 AM 47.7 °F - 44.6 °F 89% 29.82 in 10.0 mi East 8.1 mph 19.6 mph N/A   Overcast
6:55 AM 47.8 °F - 45.1 °F 90% 29.82 in 10.0 mi ESE 8.1 mph - N/A   Overcast
7:15 AM 47.7 °F - 45.5 °F 92% 29.82 in 10.0 mi ESE 6.9 mph - N/A   Overcast
7:35 AM 46.6 °F - 44.4 °F 92% 29.81 in 10.0 mi ESE 5.8 mph - N/A   Overcast
7:55 AM 47.8 °F - 45.3 °F 91% 29.81 in 10.0 mi ESE 8.1 mph 16.1 mph N/A   Overcast
8:15 AM 49.3 °F - 46.0 °F 89% 29.82 in 10.0 mi ESE 9.2 mph - N/A   Overcast
8:35 AM 49.8 °F - 46.0 °F 87% 29.83 in 10.0 mi ESE 9.2 mph - N/A   Overcast
8:55 AM 49.8 °F - 46.2 °F 87% 29.83 in 10.0 mi East 4.6 mph 16.1 mph N/A   Overcast
9:15 AM 50.0 °F - 46.4 °F 87% 29.83 in 10.0 mi ESE 9.2 mph - N/A   Overcast
9:35 AM 50.9 °F - 46.8 °F 86% 29.83 in 10.0 mi ESE 13.8 mph 17.3 mph N/A   Overcast
9:55 AM 51.6 °F - 46.4 °F 82% 29.84 in 10.0 mi ESE 13.8 mph 25.3 mph N/A   Overcast
10:15 AM 50.9 °F - 45.7 °F 82% 29.84 in 10.0 mi ESE 12.7 mph 20.7 mph N/A   Overcast
10:35 AM 49.6 °F - 45.5 °F 86% 29.84 in 10.0 mi ESE 16.1 mph 23.0 mph N/A Rain Light Rain
10:55 AM 49.8 °F - 46.0 °F 87% 29.81 in 10.0 mi ESE 8.1 mph 17.3 mph N/A Rain Light Rain
11:15 AM 50.7 °F - 47.1 °F 87% 29.79 in 10.0 mi ESE 6.9 mph - N/A   Overcast
11:35 AM 51.3 °F - 48.0 °F 89% 29.78 in 10.0 mi ESE 10.4 mph - N/A Rain Light Rain
11:55 AM 50.9 °F - 48.0 °F 90% 29.80 in 10.0 mi SE 11.5 mph 17.3 mph N/A   Overcast
12:15 PM 50.2 °F - 47.7 °F 91% 29.81 in 10.0 mi ESE 9.2 mph - N/A   Overcast
12:35 PM 50.7 °F - 48.2 °F 91% 29.80 in 10.0 mi SE 12.7 mph 19.6 mph N/A   Overcast
12:55 PM 50.9 °F - 48.0 °F 90% 29.81 in 10.0 mi SE 6.9 mph - N/A   Drizzle
1:15 PM 49.1 °F - 47.7 °F 95% 29.81 in 10.0 mi ESE 3.5 mph - N/A Rain Light Rain
1:35 PM 48.7 °F - 48.0 °F 97% 29.81 in 7.0 mi Calm Calm - 0.01 in Rain Rain
1:55 PM 44.2 °F - 44.2 °F 100% 29.82 in 1.5 mi Calm Calm - 0.03 in Rain Rain
2:15 PM 42.6 °F - 42.6 °F 100% 29.82 in 0.2 mi Calm Calm - 0.01 in Rain Rain
2:35 PM 44.1 °F 42.5 °F 44.1 °F 100% 29.82 in 0.8 mi West 3.5 mph - 0.04 in Rain Light Rain
2:55 PM 35.2 °F 28.8 °F 35.2 °F 100% 29.84 in 1.2 mi WNW 8.1 mph - 0.04 in Rain Light Rain
3:15 PM 33.1 °F 26.9 °F 33.1 °F 100% 29.84 in 1.2 mi WNW 6.9 mph - N/A   Drizzle
3:55 PM 32.0 °F - 32.0 °F 100% 29.86 in 1.8 mi Calm Calm - 0.01 in   Overcast
4:15 PM 32.0 °F - 32.0 °F 100% 29.86 in 2.5 mi Calm Calm - 0.01 in   Overcast
4:35 PM 32.0 °F - 32.0 °F 100% 29.87 in 3.0 mi Calm Calm - 0.02 in   Overcast
4:55 PM 32.0 °F - 32.0 °F 100% 29.89 in 3.0 mi Calm Calm - 0.03 in   Overcast
5:15 PM 31.5 °F - 31.5 °F 100% 29.89 in 4.0 mi Calm Calm - 0.01 in   Overcast
5:35 PM 31.1 °F - 31.1 °F 100% 29.88 in 5.0 mi Calm Calm - 0.02 in   Overcast
5:55 PM 30.9 °F - 30.9 °F 100% 29.89 in 5.0 mi Calm Calm - 0.02 in   Overcast
6:15 PM 30.4 °F - 30.4 °F 100% 29.90 in 4.0 mi Calm Calm - N/A   Overcast
6:35 PM 30.0 °F - 30.0 °F 100% 29.92 in 3.0 mi Calm Calm - N/A   Overcast
6:55 PM 29.5 °F - 29.5 °F 100% 29.92 in 4.0 mi Calm Calm - 0.01 in   Overcast
7:15 PM 28.9 °F - 28.9 °F 100% 29.94 in 5.0 mi Calm Calm - N/A   Overcast
7:35 PM 28.9 °F - 28.9 °F 100% 29.93 in 3.0 mi Calm Calm - N/A   Overcast
7:55 PM 28.4 °F - 28.4 °F 100% 29.93 in 5.0 mi Calm Calm - N/A   Overcast
8:15 PM 27.9 °F - 27.9 °F 100% 29.93 in 4.0 mi Calm Calm - N/A   Overcast
8:35 PM 27.7 °F - 27.7 °F 100% 29.94 in 3.0 mi Calm Calm - N/A   Overcast
8:55 PM 27.9 °F - 27.9 °F 100% 29.94 in 3.0 mi Calm Calm - N/A   Overcast
9:15 PM 27.3 °F - 27.3 °F 100% 29.94 in 4.0 mi Calm Calm - N/A   Overcast
9:35 PM 26.6 °F 20.0 °F 26.6 °F 100% 29.94 in 5.0 mi West 5.8 mph - N/A   Overcast
9:55 PM 26.8 °F 21.4 °F 26.8 °F 100% 29.92 in 4.0 mi West 4.6 mph - N/A   Overcast
10:55 PM 27.1 °F 20.7 °F 27.1 °F 100% 29.93 in 3.0 mi West 5.8 mph - 0.01 in   Overcast
11:15 PM 26.8 °F 20.2 °F 26.8 °F 100% 29.95 in 2.5 mi West 5.8 mph - 0.01 in   Overcast
11:35 PM 26.6 °F 20.0 °F 26.6 °F 100% 29.94 in 1.8 mi West 5.8 mph - 0.03 in Snow Light Snow
11:55 PM 26.8 °F 18.5 °F 26.8 °F 100% 29.93 in 1.8 mi WNW 8.1 mph - 0.04 in Snow Light Snow